ZL1UCH Weather Reports


Display with metric or nautical units.
time (UTC)temp
F
wind
direction
speed
MPH
gust
MPH
rain 1hr
in
rain 24hr
in
rain mn
in
humidity
%
barometer
mb
20260510020043 65 212 7.0 16.0 0.00 0.17 0.00 77 1009.2
20260510014553 64 224 8.0 17.0 0.00 0.18 0.00 76 1009.3
20260510013038 65 238 9.0 20.0 0.00 0.18 0.00 74 1009.3
20260510011536 65 278 8.0 21.0 0.00 0.18 0.00 75 1009.3
20260510010044 66 218 9.0 20.0 0.00 0.18 0.00 75 1009.2
20260510004542 65 263 10.0 18.0 0.00 0.18 0.00 75 1009.2
20260510003037 66 229 9.0 20.0 0.00 0.18 0.00 73 1009.4
20260510001546 66 226 9.0 22.0 0.00 0.18 0.00 73 1009.4
20260510000043 66 181 9.0 21.0 0.00 0.18 0.00 71 1009.4
20260509234542 65 221 11.0 21.0 0.00 0.18 0.00 72 1009.5
20260509233043 64 221 8.0 17.0 0.00 0.18 0.00 77 1009.6
20260509231541 65 239 10.0 21.0 0.00 0.18 0.00 73 1009.7
20260509230048 64 243 11.0 20.0 0.00 0.18 0.00 73 1009.6
20260509224541 63 229 10.0 21.0 0.00 0.18 0.00 79 1009.4
20260509223055 63 225 10.0 20.0 0.00 0.18 0.00 80 1009.5
20260509221539 62 237 7.0 17.0 0.00 0.18 0.00 83 1009.6
20260509220035 60 198 6.0 15.0 0.00 0.18 0.00 86 1009.4
20260509214538 63 228 10.0 18.0 0.00 0.17 0.00 76 1009.3
20260509213048 62 200 10.0 16.0 0.00 0.17 0.00 77 1009.1
20260509211538 61 245 5.0 13.0 0.00 0.17 0.00 82 1009.3
20260509210043 61 279 7.0 15.0 0.00 0.17 0.00 81 1009.1
20260509204542 60 232 5.0 11.0 0.00 0.17 0.00 81 1009.1
20260509203041 60 225 7.0 16.0 0.00 0.17 0.00 79 1009.1
20260509201540 60 229 7.0 15.0 0.00 0.17 0.00 77 1009.0
20260509200039 60 220 5.0 16.0 0.00 0.17 0.00 79 1008.8
20260509194551 59 179 8.0 14.0 0.00 0.17 0.00 80 1008.7
20260509193035 58 232 3.0 8.0 0.00 0.17 0.00 80 1008.5
20260509191542 59 203 4.0 9.0 0.00 0.17 0.00 79 1008.3
20260509190042 58 232 4.0 10.0 0.00 0.17 0.00 81 1008.2
20260509184537 58 203 4.0 10.0 0.00 0.17 0.00 81 1008.1
20260509183047 57 229 2.0 8.0 0.00 0.17 0.00 83 1007.9
20260509181545 58 185 3.0 7.0 0.00 0.17 0.00 83 1007.7
20260509180053 58 229 3.0 10.0 0.00 0.17 0.00 83 1007.6
20260509174545 58 242 5.0 11.0 0.00 0.18 0.00 82 1007.4
20260509173057 58 250 6.0 15.0 0.00 0.18 0.00 82 1007.2
20260509171544 58 244 7.0 15.0 0.00 0.18 0.00 82 1007.0
20260509170043 58 231 6.0 11.0 0.00 0.18 0.00 82 1006.9
20260509164542 58 240 6.0 12.0 0.00 0.18 0.00 80 1006.8
20260509163040 58 250 6.0 13.0 0.00 0.18 0.00 81 1006.7
20260509161551 58 238 5.0 12.0 0.00 0.18 0.00 83 1006.6
20260509160039 58 207 6.0 13.0 0.00 0.18 0.00 83 1006.7
20260509154542 57 198 5.0 10.0 0.00 0.18 0.00 85 1006.6
20260509153055 56 261 2.0 5.0 0.00 0.18 0.00 87 1006.8
20260509151541 56 172 2.0 5.0 0.00 0.18 0.00 87 1007.0
20260509150040 56 235 1.0 3.0 0.00 0.18 0.00 87 1006.9
20260509144539 56 220 2.0 5.0 0.00 0.18 0.00 87 1006.9
20260509143036 56 194 2.0 8.0 0.00 0.18 0.00 86 1007.0
20260509141540 56 241 3.0 8.0 0.00 0.18 0.00 87 1006.8
20260509140055 56 214 4.0 10.0 0.00 0.18 0.00 88 1006.9
20260509134537 57 243 4.0 8.0 0.00 0.18 0.00 89 1006.9
20260509133125 57 217 3.0 8.0 0.00 0.18 0.00 89 1006.8
20260509131535 56 261 3.0 7.0 0.00 0.18 0.00 90 1006.9
20260509130035 56 217 2.0 7.0 0.00 0.18 0.00 90 1006.7
20260509124549 56 228 2.0 6.0 0.00 0.18 0.00 90 1006.7
20260509123037 57 229 2.0 5.0 0.00 0.18 0.00 90 1006.8
20260509121536 57 210 3.0 6.0 0.00 0.18 0.00 90 1006.7
20260509120038 58 211 3.0 9.0 0.00 0.18 0.00 90 1006.6
20260509114537 58 249 4.0 9.0 0.00 0.20 0.18 90 1006.3
20260509113041 58 230 4.0 8.0 0.00 0.20 0.18 91 1006.4
20260509111539 57 242 3.0 7.0 0.00 0.20 0.18 91 1005.9
20260509110037 57 243 1.0 4.0 0.00 0.20 0.18 91 1006.0
20260509104538 58 0 0.0 3.0 0.00 0.43 0.18 91 1006.1
20260509103040 57 238 1.0 6.0 0.00 0.42 0.17 90 1006.4
20260509101536 57 274 2.0 4.0 0.00 0.42 0.17 90 1006.4
20260509100039 57 295 2.0 6.0 0.00 0.42 0.17 90 1006.6
20260509094543 56 274 2.0 4.0 0.00 0.48 0.17 90 1006.5
20260509093041 56 269 1.0 3.0 0.00 0.48 0.17 91 1006.6
20260509091546 56 0 0.0 3.0 0.00 0.48 0.17 91 1006.5
20260509090041 56 289 2.0 4.0 0.00 0.48 0.17 91 1006.3
20260509084542 56 312 3.0 5.0 0.00 0.51 0.17 91 1006.5
20260509083041 57 306 0.0 2.0 0.00 0.51 0.17 91 1006.3
20260509081536 57 278 0.0 2.0 0.00 0.51 0.17 91 1006.3
20260509080045 57 266 0.0 3.0 0.00 0.51 0.17 91 1006.1
20260509074548 57 0 0.0 1.0 0.00 0.54 0.17 91 1006.1
20260509073058 58 0 0.0 4.0 0.00 0.53 0.16 91 1006.0
20260509071549 58 224 1.0 3.0 0.00 0.53 0.16 91 1006.4
20260509070043 58 290 0.0 3.0 0.01 0.53 0.16 91 1006.3
20260509064537 59 314 1.0 2.0 0.01 0.53 0.16 91 1006.5
20260509063055 59 317 0.0 1.0 0.02 0.53 0.16 91 1006.4
20260509061540 59 0 0.0 0.0 0.03 0.52 0.15 91 1006.2
20260509060105 59 0 0.0 1.0 0.04 0.51 0.14 91 1006.4
20260509054540 59 0 0.0 1.0 0.04 0.51 0.14 90 1006.4
20260509053054 59 0 0.0 3.0 0.04 0.51 0.14 90 1006.5
20260509051546 59 272 1.0 4.0 0.02 0.48 0.11 90 1006.5
20260509050046 59 297 1.0 3.0 0.00 0.47 0.10 90 1006.3
20260509044539 59 283 0.0 4.0 0.01 0.47 0.10 90 1006.0
20260509043044 59 298 2.0 7.0 0.01 0.46 0.09 90 1006.3
20260509041536 59 303 3.0 7.0 0.02 0.46 0.09 90 1006.2
20260509040050 60 279 4.0 8.0 0.02 0.46 0.09 90 1006.2
20260509034542 60 267 2.0 4.0 0.01 0.45 0.08 91 1006.6
20260509033056 60 269 1.0 3.0 0.01 0.44 0.07 91 1006.5
20260509031539 60 282 1.0 2.0 0.05 0.44 0.07 90 1006.5
20260509030036 60 203 0.0 2.0 0.05 0.44 0.07 90 1006.2
20260509024555 60 252 2.0 8.0 0.06 0.44 0.07 89 1006.5
20260509023041 60 257 3.0 11.0 0.05 0.43 0.06 87 1006.7
20260509021538 63 233 2.0 6.0 0.00 0.38 0.01 84 1006.6